Zurück zum Katalog

SL-24 R/B

AktivSSO
NORAD 33397·ROCKET BODY·🇷🇺 Russia

Gestartet Oct 1, 2008 von Dombarovsky

Loading…

Nächste Überflüge (nächste 24 Stunden)

TLE

AktuellSource: Space-Track

Epoche: Sep 14, 2026, 06:26 UTC

1 33397U 08049B   26257.26814167 -.00000087  00000-0 -22855-4 0  9996
2 33397  98.7543  24.4446 0338748 129.0378 255.6409 13.92028214911947

Verfolge SL-24 R/B in Echtzeit mit AllMySat

Download on the App Store